Location: Bergen
(60.3910°N, 5.3250°E)
Time: 06:11:59
(UTC+02:00)

ISS - Visible Passes

Search period start: 27 May 2017 00:00
Search period end: 06 June 2017 00:00
Orbit: 402 x 408 km, 51.6° (Epoch: 27 May)

Date Brightness Start Highest point End Pass type
(mag) Time Alt. Az. Time Alt. Az. Time Alt. Az.
27 May -2.3 00:58:35 10° SW 01:00:57 18° S 01:03:19 10° SE visible
27 May -1.9 02:35:01 10° SW 02:36:36 13° SSW 02:38:10 10° S visible
28 May -2.3 00:06:48 10° SW 00:09:08 18° S 00:11:28 10° SE visible
28 May -2.1 01:42:48 10° SW 01:44:49 15° SSW 01:46:50 10° SSE visible
29 May -2.2 00:50:47 10° SW 00:53:01 17° S 00:55:16 10° SE visible
30 May -1.8 01:35:29 10° SW 01:36:49 12° SSW 01:37:44 11° S visible
31 May -1.9 00:43:07 10° SW 00:45:01 14° SSW 00:46:54 10° SSE visible
02 Jun -1.6 00:35:58 10° SW 00:36:55 11° SSW 00:37:52 10° S visible
